Time,TemperatureF,DewpointF,PressureIn,WindDirection,WindDirectionDegrees,WindSpeedMPH,WindSpeedGustMPH,Humidity,HourlyPrecipIn,Conditions,Clouds,dailyrainin,SoftwareType,DateUTC
2013-01-29 00:00:00,59.0,59.0,30.28,SW,220,9.0,13.0,100,-99.99,,,-99.99,,2013-01-29 05:00:00,
2013-01-29 00:21:00,59.0,59.0,30.28,SW,220,9.0,13.0,100,-99.99,,,-99.99,,2013-01-29 05:21:00,
2013-01-29 00:31:00,59.0,59.0,30.28,SW,220,9.0,13.0,100,-99.99,,,-99.99,,2013-01-29 05:31:00,
2013-01-29 00:42:00,59.0,59.0,30.28,SW,220,9.0,13.0,100,-99.99,,,-99.99,,2013-01-29 05:42:00,
2013-01-29 00:52:00,59.0,59.0,30.28,SW,220,9.0,13.0,100,-99.99,,,-99.99,,2013-01-29 05:52:00,
2013-01-29 01:00:00,60.0,59.0,30.26,SW,220,13.0,16.0,99,-99.99,,,-99.99,,2013-01-29 06:00:00,
2013-01-29 01:21:00,60.0,59.0,30.26,SW,220,13.0,16.0,99,-99.99,,,-99.99,,2013-01-29 06:21:00,
2013-01-29 01:31:00,60.0,59.0,30.26,SW,220,13.0,16.0,99,-99.99,,,-99.99,,2013-01-29 06:31:00,
2013-01-29 01:41:00,60.0,59.0,30.26,SW,220,13.0,16.0,99,-99.99,,,-99.99,,2013-01-29 06:41:00,
2013-01-29 01:52:00,60.0,59.0,30.26,SW,220,13.0,16.0,99,-99.99,,,-99.99,,2013-01-29 06:52:00,
2013-01-29 02:00:00,58.0,58.0,30.25,SW,230,10.0,14.0,99,-99.99,,,-99.99,,2013-01-29 07:00:00,
2013-01-29 02:21:00,58.0,58.0,30.25,SW,230,10.0,14.0,99,-99.99,,,-99.99,,2013-01-29 07:21:00,
2013-01-29 02:31:00,58.0,58.0,30.25,SW,230,10.0,14.0,99,-99.99,,,-99.99,,2013-01-29 07:31:00,
2013-01-29 02:41:00,58.0,58.0,30.25,SW,230,10.0,14.0,99,-99.99,,,-99.99,,2013-01-29 07:41:00,
2013-01-29 02:51:00,58.0,58.0,30.25,SW,230,10.0,14.0,99,-99.99,,,-99.99,,2013-01-29 07:51:00,
2013-01-29 03:00:00,54.0,54.0,30.25,West,270,7.0,8.0,100,-99.99,,,-99.99,,2013-01-29 08:00:00,
2013-01-29 03:21:00,54.0,54.0,30.25,West,270,7.0,8.0,100,-99.99,,,-99.99,,2013-01-29 08:21:00,
2013-01-29 03:31:00,54.0,54.0,30.25,West,270,7.0,8.0,100,-99.99,,,-99.99,,2013-01-29 08:31:00,
2013-01-29 03:41:00,54.0,54.0,30.25,West,270,7.0,8.0,100,-99.99,,,-99.99,,2013-01-29 08:41:00,
2013-01-29 03:51:00,54.0,54.0,30.25,West,270,7.0,8.0,100,-99.99,,,-99.99,,2013-01-29 08:51:00,
2013-01-29 04:00:00,53.0,53.0,30.24,West,260,10.0,13.0,99,-99.99,,,-99.99,,2013-01-29 09:00:00,
2013-01-29 04:21:00,53.0,53.0,30.24,West,260,10.0,13.0,99,-99.99,,,-99.99,,2013-01-29 09:21:00,
2013-01-29 04:31:00,53.0,53.0,30.24,West,260,10.0,13.0,99,-99.99,,,-99.99,,2013-01-29 09:31:00,
2013-01-29 04:41:00,53.0,53.0,30.24,West,260,10.0,13.0,99,-99.99,,,-99.99,,2013-01-29 09:41:00,
2013-01-29 04:51:00,53.0,53.0,30.24,West,260,10.0,13.0,99,-99.99,,,-99.99,,2013-01-29 09:51:00,
2013-01-29 05:00:00,53.0,53.0,30.23,WSW,240,9.0,11.0,100,-99.99,,,-99.99,,2013-01-29 10:00:00,
2013-01-29 05:21:00,53.0,53.0,30.23,WSW,240,9.0,11.0,100,-99.99,,,-99.99,,2013-01-29 10:21:00,
2013-01-29 05:32:00,53.0,53.0,30.23,WSW,240,9.0,11.0,100,-99.99,,,-99.99,,2013-01-29 10:32:00,
2013-01-29 05:41:00,53.0,53.0,30.23,WSW,240,9.0,11.0,100,-99.99,,,-99.99,,2013-01-29 10:41:00,
2013-01-29 05:51:00,53.0,53.0,30.23,WSW,240,9.0,11.0,100,-99.99,,,-99.99,,2013-01-29 10:51:00,
2013-01-29 06:00:00,54.0,54.0,30.24,WSW,250,11.0,13.0,100,-99.99,,,-99.99,,2013-01-29 11:00:00,
2013-01-29 06:21:00,54.0,54.0,30.24,WSW,250,11.0,13.0,100,-99.99,,,-99.99,,2013-01-29 11:21:00,
2013-01-29 06:31:00,54.0,54.0,30.24,WSW,250,11.0,13.0,100,-99.99,,,-99.99,,2013-01-29 11:31:00,
2013-01-29 06:41:00,54.0,54.0,30.24,WSW,250,11.0,13.0,100,-99.99,,,-99.99,,2013-01-29 11:41:00,
2013-01-29 06:52:00,54.0,54.0,30.24,WSW,250,11.0,13.0,100,-99.99,,,-99.99,,2013-01-29 11:52:00,
2013-01-29 07:00:00,54.0,54.0,30.24,WSW,250,10.0,14.0,100,-99.99,,,-99.99,,2013-01-29 12:00:00,
2013-01-29 07:21:00,54.0,54.0,30.24,WSW,250,10.0,14.0,100,-99.99,,,-99.99,,2013-01-29 12:21:00,
2013-01-29 07:32:00,54.0,54.0,30.24,WSW,250,10.0,14.0,100,-99.99,,,-99.99,,2013-01-29 12:32:00,
2013-01-29 07:42:00,54.0,54.0,30.24,WSW,250,10.0,14.0,100,-99.99,,,-99.99,,2013-01-29 12:42:00,
2013-01-29 07:52:00,54.0,54.0,30.24,WSW,250,10.0,14.0,100,-99.99,,,-99.99,,2013-01-29 12:52:00,
2013-01-29 08:00:00,55.0,54.0,30.25,WSW,250,9.0,11.0,99,-99.99,,,-99.99,,2013-01-29 13:00:00,
2013-01-29 08:22:00,55.0,54.0,30.25,WSW,250,9.0,11.0,99,-99.99,,,-99.99,,2013-01-29 13:22:00,
2013-01-29 08:31:00,55.0,54.0,30.25,WSW,250,9.0,11.0,99,-99.99,,,-99.99,,2013-01-29 13:31:00,
2013-01-29 08:42:00,55.0,54.0,30.25,WSW,250,9.0,11.0,99,-99.99,,,-99.99,,2013-01-29 13:42:00,
2013-01-29 08:52:00,55.0,54.0,30.25,WSW,250,9.0,11.0,99,-99.99,,,-99.99,,2013-01-29 13:52:00,
2013-01-29 09:00:00,56.0,56.0,30.25,WSW,250,11.0,14.0,99,-99.99,,,-99.99,,2013-01-29 14:00:00,
2013-01-29 09:21:00,56.0,56.0,30.25,WSW,250,11.0,14.0,99,-99.99,,,-99.99,,2013-01-29 14:21:00,
2013-01-29 09:32:00,56.0,56.0,30.25,WSW,250,11.0,14.0,99,-99.99,,,-99.99,,2013-01-29 14:32:00,
2013-01-29 09:42:00,56.0,56.0,30.25,WSW,250,11.0,14.0,99,-99.99,,,-99.99,,2013-01-29 14:42:00,
2013-01-29 09:52:00,56.0,56.0,30.25,WSW,250,11.0,14.0,99,-99.99,,,-99.99,,2013-01-29 14:52:00,
2013-01-29 10:00:00,57.0,56.0,30.26,West,260,11.0,15.0,94,-99.99,,,-99.99,,2013-01-29 15:00:00,
2013-01-29 10:21:00,57.0,56.0,30.26,West,260,11.0,15.0,94,-99.99,,,-99.99,,2013-01-29 15:21:00,
2013-01-29 10:32:00,57.0,56.0,30.26,West,260,11.0,15.0,94,-99.99,,,-99.99,,2013-01-29 15:32:00,
2013-01-29 10:42:00,57.0,56.0,30.26,West,260,11.0,15.0,94,-99.99,,,-99.99,,2013-01-29 15:42:00,
2013-01-29 10:52:00,57.0,56.0,30.26,West,260,11.0,15.0,94,-99.99,,,-99.99,,2013-01-29 15:52:00,
2013-01-29 11:00:00,58.0,55.0,30.24,WSW,240,13.0,17.0,90,-99.99,,,-99.99,,2013-01-29 16:00:00,
2013-01-29 11:21:00,58.0,55.0,30.24,WSW,240,13.0,17.0,90,-99.99,,,-99.99,,2013-01-29 16:21:00,
2013-01-29 11:31:00,58.0,55.0,30.24,WSW,240,13.0,17.0,90,-99.99,,,-99.99,,2013-01-29 16:31:00,
2013-01-29 11:42:00,58.0,55.0,30.24,WSW,240,13.0,17.0,90,-99.99,,,-99.99,,2013-01-29 16:42:00,
2013-01-29 11:52:00,58.0,55.0,30.24,WSW,240,13.0,17.0,90,-99.99,,,-99.99,,2013-01-29 16:52:00,
2013-01-29 12:00:00,60.0,56.0,30.22,WSW,240,11.0,15.0,89,-99.99,,,-99.99,,2013-01-29 17:00:00,
2013-01-29 12:21:00,60.0,56.0,30.22,WSW,240,11.0,15.0,89,-99.99,,,-99.99,,2013-01-29 17:21:00,
2013-01-29 12:31:00,60.0,56.0,30.22,WSW,240,11.0,15.0,89,-99.99,,,-99.99,,2013-01-29 17:31:00,
2013-01-29 12:41:00,60.0,56.0,30.22,WSW,240,11.0,15.0,89,-99.99,,,-99.99,,2013-01-29 17:41:00,
2013-01-29 12:52:00,60.0,56.0,30.22,WSW,240,11.0,15.0,89,-99.99,,,-99.99,,2013-01-29 17:52:00,
2013-01-29 13:00:00,60.0,58.0,30.19,SW,230,11.0,17.0,90,-99.99,,,-99.99,,2013-01-29 18:00:00,
2013-01-29 13:21:00,60.0,58.0,30.19,SW,230,11.0,17.0,90,-99.99,,,-99.99,,2013-01-29 18:21:00,
2013-01-29 13:33:00,60.0,58.0,30.19,SW,230,11.0,17.0,90,-99.99,,,-99.99,,2013-01-29 18:33:00,
2013-01-29 13:41:00,60.0,58.0,30.19,SW,230,11.0,17.0,90,-99.99,,,-99.99,,2013-01-29 18:41:00,
2013-01-29 13:51:00,60.0,58.0,30.19,SW,230,11.0,17.0,90,-99.99,,,-99.99,,2013-01-29 18:51:00,
2013-01-29 14:00:00,61.0,59.0,30.16,SSW,210,13.0,17.0,91,-99.99,,,-99.99,,2013-01-29 19:00:00,
2013-01-29 14:22:00,61.0,59.0,30.16,SSW,210,13.0,17.0,91,-99.99,,,-99.99,,2013-01-29 19:22:00,
2013-01-29 14:31:00,61.0,59.0,30.16,SSW,210,13.0,17.0,91,-99.99,,,-99.99,,2013-01-29 19:31:00,
2013-01-29 14:41:00,61.0,59.0,30.16,SSW,210,13.0,17.0,91,-99.99,,,-99.99,,2013-01-29 19:41:00,
2013-01-29 14:51:00,61.0,59.0,30.16,SSW,210,13.0,17.0,91,-99.99,,,-99.99,,2013-01-29 19:51:00,
2013-01-29 15:00:00,62.0,60.0,30.16,SSW,210,14.0,16.0,90,-99.99,,,-99.99,,2013-01-29 20:00:00,
2013-01-29 15:21:00,62.0,60.0,30.16,SSW,210,14.0,16.0,90,-99.99,,,-99.99,,2013-01-29 20:21:00,
2013-01-29 15:32:00,62.0,60.0,30.16,SSW,210,14.0,16.0,90,-99.99,,,-99.99,,2013-01-29 20:32:00,
2013-01-29 15:41:00,62.0,60.0,30.16,SSW,210,14.0,16.0,90,-99.99,,,-99.99,,2013-01-29 20:41:00,
2013-01-29 15:52:00,62.0,60.0,30.16,SSW,210,14.0,16.0,90,-99.99,,,-99.99,,2013-01-29 20:52:00,
2013-01-29 16:00:00,61.0,61.0,30.17,SSW,210,11.0,14.0,98,-99.99,,,-99.99,,2013-01-29 21:00:00,
2013-01-29 16:21:00,61.0,61.0,30.17,SSW,210,11.0,14.0,98,-99.99,,,-99.99,,2013-01-29 21:21:00,
2013-01-29 16:32:00,61.0,61.0,30.17,SSW,210,11.0,14.0,98,-99.99,,,-99.99,,2013-01-29 21:32:00,
2013-01-29 16:41:00,61.0,61.0,30.17,SSW,210,11.0,14.0,98,-99.99,,,-99.99,,2013-01-29 21:41:00,
2013-01-29 16:52:00,61.0,61.0,30.17,SSW,210,11.0,14.0,98,-99.99,,,-99.99,,2013-01-29 21:52:00,
2013-01-29 17:00:00,61.0,61.0,30.16,SW,220,13.0,16.0,99,-99.99,,,-99.99,,2013-01-29 22:00:00,
2013-01-29 17:21:00,61.0,61.0,30.16,SW,220,13.0,16.0,99,-99.99,,,-99.99,,2013-01-29 22:21:00,
2013-01-29 17:32:00,61.0,61.0,30.16,SW,220,13.0,16.0,99,-99.99,,,-99.99,,2013-01-29 22:32:00,
2013-01-29 17:41:00,61.0,61.0,30.16,SW,220,13.0,16.0,99,-99.99,,,-99.99,,2013-01-29 22:41:00,
2013-01-29 17:52:00,61.0,61.0,30.16,SW,220,13.0,16.0,99,-99.99,,,-99.99,,2013-01-29 22:52:00,
2013-01-29 18:00:00,60.0,60.0,30.18,SW,220,10.0,13.0,99,-99.99,,,-99.99,,2013-01-29 23:00:00,
2013-01-29 18:21:00,60.0,60.0,30.18,SW,220,10.0,13.0,99,-99.99,,,-99.99,,2013-01-29 23:21:00,
2013-01-29 18:31:00,60.0,60.0,30.18,SW,220,10.0,13.0,99,-99.99,,,-99.99,,2013-01-29 23:31:00,
2013-01-29 18:41:00,60.0,60.0,30.18,SW,220,10.0,13.0,99,-99.99,,,-99.99,,2013-01-29 23:41:00,
2013-01-29 18:52:00,60.0,60.0,30.18,SW,220,10.0,13.0,99,-99.99,,,-99.99,,2013-01-29 23:52:00,
2013-01-29 19:00:00,61.0,61.0,30.18,SSW,200,11.0,13.0,99,-99.99,,,-99.99,,2013-01-30 00:00:00,
2013-01-29 19:21:00,61.0,61.0,30.18,SSW,200,11.0,13.0,99,-99.99,,,-99.99,,2013-01-30 00:21:00,
2013-01-29 19:31:00,61.0,61.0,30.18,SSW,200,11.0,13.0,99,-99.99,,,-99.99,,2013-01-30 00:31:00,
2013-01-29 19:42:00,61.0,61.0,30.18,SSW,200,11.0,13.0,99,-99.99,,,-99.99,,2013-01-30 00:42:00,
2013-01-29 19:52:00,61.0,61.0,30.18,SSW,200,11.0,13.0,99,-99.99,,,-99.99,,2013-01-30 00:52:00,
2013-01-29 20:00:00,61.0,60.0,30.18,SSW,200,11.0,14.0,99,-99.99,,,-99.99,,2013-01-30 01:00:00,
2013-01-29 20:22:00,61.0,60.0,30.18,SSW,200,11.0,14.0,99,-99.99,,,-99.99,,2013-01-30 01:22:00,
2013-01-29 20:31:00,61.0,60.0,30.18,SSW,200,11.0,14.0,99,-99.99,,,-99.99,,2013-01-30 01:31:00,
2013-01-29 20:42:00,61.0,60.0,30.18,SSW,200,11.0,14.0,99,-99.99,,,-99.99,,2013-01-30 01:42:00,
2013-01-29 20:51:00,61.0,60.0,30.18,SSW,200,11.0,14.0,99,-99.99,,,-99.99,,2013-01-30 01:51:00,
2013-01-29 21:00:00,59.0,59.0,30.18,South,190,9.0,9.0,99,-99.99,,,-99.99,,2013-01-30 02:00:00,
2013-01-29 21:21:00,59.0,59.0,30.18,South,190,9.0,9.0,99,-99.99,,,-99.99,,2013-01-30 02:21:00,
2013-01-29 21:32:00,59.0,59.0,30.18,South,190,9.0,9.0,99,-99.99,,,-99.99,,2013-01-30 02:32:00,
2013-01-29 21:41:00,59.0,59.0,30.18,South,190,9.0,9.0,99,-99.99,,,-99.99,,2013-01-30 02:41:00,
2013-01-29 21:52:00,59.0,59.0,30.18,South,190,9.0,9.0,99,-99.99,,,-99.99,,2013-01-30 02:52:00,
2013-01-29 22:00:00,61.0,61.0,30.18,SSW,200,10.0,13.0,100,-99.99,,,-99.99,,2013-01-30 03:00:00,
2013-01-29 22:21:00,61.0,61.0,30.18,SSW,200,10.0,13.0,100,-99.99,,,-99.99,,2013-01-30 03:21:00,
2013-01-29 22:31:00,61.0,61.0,30.18,SSW,200,10.0,13.0,100,-99.99,,,-99.99,,2013-01-30 03:31:00,
2013-01-29 22:41:00,61.0,61.0,30.18,SSW,200,10.0,13.0,100,-99.99,,,-99.99,,2013-01-30 03:41:00,
2013-01-29 22:51:00,61.0,61.0,30.18,SSW,200,10.0,13.0,100,-99.99,,,-99.99,,2013-01-30 03:51:00,
2013-01-29 23:21:00,63.0,63.0,30.18,SSW,200,13.0,15.0,99,-99.99,,,-99.99,,2013-01-30 04:21:00,
2013-01-29 23:31:00,63.0,63.0,30.18,SSW,200,13.0,15.0,99,-99.99,,,-99.99,,2013-01-30 04:31:00,
2013-01-29 23:41:00,63.0,63.0,30.18,SSW,200,13.0,15.0,99,-99.99,,,-99.99,,2013-01-30 04:41:00,
2013-01-29 23:51:00,63.0,63.0,30.18,SSW,200,13.0,15.0,99,-99.99,,,-99.99,,2013-01-30 04:51:00,